COSMOS 2251 DEB, 33928

Orbit data source: Space-Track

COSMOS 2251 DEB, 33928 is space debris in LEO originally from a launch on Wed, 16 Jun 1993 UTC launched from the Plesetsk Missile And Space Complex (PKMTR). The debris from Iridium 33, an American commercial communications satellite, has been tracked extensively since its accidental collision with the defunct Russian satellite Cosmos 2251 in 2009. This event, occurring at high speed in low Earth orbit (LEO), generated thousands of pieces of space debris, significantly increasing the risk of further collisions. The Iridium 33 debris cloud has impacted space traffic management and orbital debris mitigation strategies, making it a subject of ongoing study in space situational awareness.

Loading next visibility...
Identifier
33928, 1993-036EH
Orbit
LEO
Country
Flag of CISCIS
Related business
Manufacturer
Unknown
Mission
Spacecraft
Bus & Motor
Unknown
Mass
Unknown
Launch date (UTC)
1993-06-16 (33 years ago)
Launch vehicle
Unknown
Launch site
Plesetsk Missile And Space Complex (PKMTR)
Object type
Payload
Rocket body
Debris
Shape & HBR
Unknown shape, 0.1 m
Radar Cross Section
Small (<0.1 m²)

Expand to show TLE details & history
Last TLE update: 20 hours ago

TLE from 20 hours ago
0 COSMOS 2251 DEB
1 33928U 93036EH  25350.16184618  .00000781  00000-0  21574-3 0  9994
2 33928  73.9259  46.1224 0061630 339.5117  20.3570 14.47410692886946
Epoch: 2025-12-16T03:53Z
TLE epoch observation values (Epoch: 2025-12-16T03:53:03.509Z)
Latitude
0.00001°
Longitude
-97.19224°
Altitude
695.668 km
Speed
7.53 km/s
True Right ascension
03h 04m 29s
True Declination
0° 00' 00"
Sunlit
Object was in full shadow at epoch
Visualization orbit readout
Latitude
Unknown
Longitude
Unknown
Altitude
Unknown
Speed
Unknown
Apparent Right ascension
Unknown
Apparent Declination
Unknown
Sunlit
N/A
Visualization observer readout
Local Sidereal Time
22:15:05
Azimuth
Unknown
Elevation
Unknown
Doppler factor
Unknown
Orbital elements
Apogee altitude
775.557 km
Perigee altitude
687.921 km
Semi-major axis
7,109.876 km
Eccentricity
0.00616
Inclination
73.9259°
RAAN
46.1224°
Arg. of periapsis
339.5117°
True anomaly
20.60446°
Mean anomaly
20.357°
Eccentric anomaly
20.48055°
Mean motion
3.62035 °/min
Orbital period
99.44 mins
BSTAR
0.00021574

Documentation

Showing up to 5 results
|